sat.trackr.live / text

‹ back to catalog

XINZHENGCHENG 01

NORAD 68414 · 2026-066C

PAYLOAD ACTIVE UNKNOWN

§ Identity

Operator
Country
PRC
Launch date
2026-03-30
Launch site
JSC
Launch vehicle
Mass (kg)
RCS (m²)

External: N2YO · Heavens-Above · Gunter

§ Orbital elements

Epoch: 2026-05-25T05:31:51.940128Z

Period
96.74 min
Inclination
84.9669°
Eccentricity
0.0025108
Mean motion
14.88582144 rev/d
Perigee alt
584.8 km
Apogee alt
619.9 km
Semi-major
6,980.5 km
B*
8.6287e-5
RAAN
242.3354°
Arg perigee
338.5354°
Mean anomaly
21.4814°
Rev number
831

§ Raw data

XINZHENGCHENG 011 68414U 26066C   26145.23046227  .00000837  00000+0  86287-4 0  99992 68414  84.9669 242.3354 0025108 338.5354  21.4814 14.88582144  8314

JSON: /api/v1/satellites/68414 · /tle

For live sub-satellite position, see the globe view (requires WebGL).

§ Visibility from observer

Set your observer location to see the next 7 days of passes ≥ 10°. The values pass through the URL so the page stays shareable.

No JS? Fill the form by hand. The geolocation button needs JavaScript.